TimeCST,TemperatureF,Dew PointF,Humidity,Sea Level PressureIn,VisibilityMPH,Wind Direction,Wind SpeedMPH,Gust SpeedMPH,PrecipitationIn,Events,Conditions,WindDirDegrees,DateUTC
12:53 AM,18.0,12.0,78,30.03,10.0,NNW,8.1,-,N/A,,Overcast,330,2013-01-06 06:53:00
1:43 AM,15.8,12.2,86,29.97,10.0,NW,9.2,-,N/A,,Overcast,310,2013-01-06 07:43:00
1:53 AM,16.0,10.9,81,30.05,10.0,WNW,9.2,-,N/A,,Overcast,300,2013-01-06 07:53:00
2:53 AM,15.1,10.9,84,30.07,10.0,NW,9.2,-,N/A,,Overcast,310,2013-01-06 08:53:00
3:53 AM,15.1,10.0,80,30.10,10.0,NNW,13.8,-,N/A,,Overcast,330,2013-01-06 09:53:00
4:53 AM,12.9,9.0,84,30.11,10.0,NNW,10.4,-,N/A,,Overcast,330,2013-01-06 10:53:00
5:53 AM,12.9,8.1,81,30.14,6.0,NW,13.8,-,0.00,Snow,Light Snow,320,2013-01-06 11:53:00
6:53 AM,12.0,7.0,80,30.17,6.0,NW,11.5,-,0.00,Snow,Light Snow,320,2013-01-06 12:53:00
7:08 AM,10.4,6.8,85,30.08,9.0,NNW,10.4,-,0.00,,Overcast,340,2013-01-06 13:08:00
7:53 AM,10.0,5.0,80,30.18,6.0,NW,5.8,-,0.00,Snow,Light Snow,310,2013-01-06 13:53:00
8:53 AM,10.9,6.1,81,30.19,10.0,North,4.6,-,0.00,,Overcast,350,2013-01-06 14:53:00
9:53 AM,10.9,5.0,77,30.21,10.0,WNW,5.8,-,N/A,,Overcast,300,2013-01-06 15:53:00
10:23 AM,10.4,3.2,73,30.12,10.0,WNW,3.5,-,N/A,,Scattered Clouds,300,2013-01-06 16:23:00
10:53 AM,12.0,5.0,73,30.21,10.0,Calm,Calm,-,N/A,,Partly Cloudy,0,2013-01-06 16:53:00
11:53 AM,15.1,6.1,68,30.19,10.0,NW,3.5,-,N/A,,Clear,310,2013-01-06 17:53:00
1:53 PM,18.0,6.1,60,30.17,10.0,Calm,Calm,-,N/A,,Clear,0,2013-01-06 19:53:00
2:53 PM,21.0,6.1,53,30.17,10.0,South,3.5,-,N/A,,Clear,180,2013-01-06 20:53:00
3:53 PM,19.9,6.1,55,30.17,10.0,SSE,3.5,-,N/A,,Clear,160,2013-01-06 21:53:00
4:53 PM,19.0,6.1,57,30.15,10.0,SSE,3.5,-,N/A,,Clear,160,2013-01-06 22:53:00
5:53 PM,12.9,5.0,71,30.12,10.0,SSE,4.6,-,N/A,,Clear,150,2013-01-06 23:53:00
6:53 PM,15.1,5.0,64,30.12,3.0,South,3.5,-,N/A,,Haze,180,2013-01-07 00:53:00
7:53 PM,12.9,3.9,67,30.10,10.0,South,3.5,-,N/A,,Clear,170,2013-01-07 01:53:00
8:53 PM,12.0,3.0,67,30.06,10.0,SSE,6.9,-,N/A,,Clear,150,2013-01-07 02:53:00
9:53 PM,14.0,3.9,64,30.04,10.0,South,5.8,-,N/A,,Clear,170,2013-01-07 03:53:00
10:53 PM,12.9,3.9,67,29.98,10.0,SSE,6.9,-,N/A,,Clear,150,2013-01-07 04:53:00
11:53 PM,14.0,6.1,71,29.96,10.0,SSE,3.5,-,N/A,,Clear,160,2013-01-07 05:53:00